Wetterdaten von Samstag, 26.02.2022 17:20 bis Sonntag, 27.02.2022 17:10
Datum/Zeit Temp. A. Feuchte Luftdruck Regen Solar Sonne Wind Windben Richtung
26.02.2022 17:20 7,5 C 69 % 1.033,6 hpa 48 W/m 1,6 km/h N
26.02.2022 17:30 7,4 C 69 % 1.033,7 hpa 23 W/m N
26.02.2022 17:40 7,2 C 70 % 1.033,7 hpa 18 W/m N
26.02.2022 17:50 6,9 C 71 % 1.033,8 hpa 11 W/m N
26.02.2022 18:00 6,7 C 71 % 1.033,8 hpa 4 W/m N
26.02.2022 18:10 6,5 C 72 % 1.033,8 hpa N
26.02.2022 18:20 6,2 C 73 % 1.033,9 hpa N
26.02.2022 18:30 5,9 C 74 % 1.034,0 hpa N
26.02.2022 18:40 5,6 C 74 % 1.034,0 hpa N
26.02.2022 18:50 5,3 C 75 % 1.034,0 hpa N
26.02.2022 19:00 4,9 C 76 % 1.034,0 hpa N
26.02.2022 19:10 4,6 C 77 % 1.034,1 hpa N
26.02.2022 19:20 4,3 C 78 % 1.034,1 hpa N
26.02.2022 19:30 3,9 C 78 % 1.034,0 hpa N
26.02.2022 19:40 3,7 C 79 % 1.034,1 hpa N
26.02.2022 19:50 3,3 C 80 % 1.034,1 hpa N
26.02.2022 20:00 3,1 C 81 % 1.034,3 hpa N
26.02.2022 20:10 2,7 C 82 % 1.034,3 hpa N
26.02.2022 20:20 2,4 C 82 % 1.034,3 hpa N
26.02.2022 20:30 2,2 C 84 % 1.034,5 hpa N
26.02.2022 20:40 1,9 C 84 % 1.034,4 hpa N
26.02.2022 20:50 1,7 C 85 % 1.034,5 hpa N
26.02.2022 21:00 1,6 C 85 % 1.034,4 hpa N
26.02.2022 21:10 1,4 C 86 % 1.034,5 hpa N
26.02.2022 21:20 1,3 C 86 % 1.034,5 hpa N
26.02.2022 21:30 1,2 C 86 % 1.034,5 hpa N
26.02.2022 21:40 1,1 C 86 % 1.034,5 hpa N
26.02.2022 21:50 0,9 C 86 % 1.034,5 hpa N
26.02.2022 22:00 0,7 C 87 % 1.034,4 hpa N
26.02.2022 22:10 0,6 C 87 % 1.034,5 hpa N
26.02.2022 22:20 0,4 C 87 % 1.034,4 hpa N
26.02.2022 22:30 0,3 C 87 % 1.034,5 hpa N
26.02.2022 22:40 0,2 C 88 % 1.034,6 hpa N
26.02.2022 22:50 0,1 C 88 % 1.034,6 hpa N
26.02.2022 23:00 0,0 C 88 % 1.034,6 hpa N
26.02.2022 23:10 -0,1 C 88 % 1.034,5 hpa N
26.02.2022 23:20 -0,2 C 88 % 1.034,5 hpa N
26.02.2022 23:30 -0,4 C 88 % 1.034,5 hpa N
26.02.2022 23:40 -0,5 C 88 % 1.034,5 hpa N
26.02.2022 23:50 -0,6 C 89 % 1.034,3 hpa N
27.02.2022 00:00 -0,7 C 89 % 1.034,4 hpa N
27.02.2022 00:10 -0,8 C 89 % 1.034,4 hpa N
27.02.2022 00:20 -0,9 C 89 % 1.034,3 hpa N
27.02.2022 00:30 -0,9 C 89 % 1.034,3 hpa N
27.02.2022 00:40 -1,0 C 89 % 1.034,2 hpa N
27.02.2022 00:50 -1,1 C 90 % 1.034,2 hpa N
27.02.2022 01:00 -1,1 C 90 % 1.034,2 hpa N
27.02.2022 01:10 -1,2 C 90 % 1.034,2 hpa N
27.02.2022 01:20 -1,3 C 90 % 1.034,1 hpa N
27.02.2022 01:30 -1,3 C 90 % 1.034,2 hpa N
27.02.2022 01:40 -1,4 C 90 % 1.034,2 hpa N
27.02.2022 01:50 -1,5 C 90 % 1.034,2 hpa N
27.02.2022 02:00 -1,5 C 90 % 1.034,2 hpa N
27.02.2022 02:10 -1,6 C 90 % 1.034,0 hpa N
27.02.2022 02:20 -1,6 C 90 % 1.034,1 hpa N
27.02.2022 02:30 -1,6 C 90 % 1.034,1 hpa N
27.02.2022 02:40 -1,7 C 90 % 1.034,0 hpa N
27.02.2022 02:50 -1,7 C 91 % 1.034,0 hpa N
27.02.2022 03:00 -1,8 C 91 % 1.034,0 hpa N
27.02.2022 03:10 -1,8 C 91 % 1.034,0 hpa N
27.02.2022 03:20 -1,8 C 91 % 1.034,0 hpa N
27.02.2022 03:30 -1,8 C 91 % 1.033,9 hpa N
27.02.2022 03:40 -1,8 C 91 % 1.033,8 hpa N
27.02.2022 03:50 -1,8 C 91 % 1.033,7 hpa N
27.02.2022 04:00 -1,7 C 91 % 1.033,7 hpa N
27.02.2022 04:10 -1,6 C 91 % 1.033,6 hpa N
27.02.2022 04:20 -1,4 C 92 % 1.033,7 hpa N
27.02.2022 04:30 -1,2 C 92 % 1.033,7 hpa N
27.02.2022 04:40 -1,1 C 92 % 1.033,6 hpa N
27.02.2022 04:50 -1,0 C 92 % 1.033,5 hpa N
27.02.2022 05:00 -1,0 C 92 % 1.033,6 hpa N
27.02.2022 05:10 -1,1 C 91 % 1.033,6 hpa N
27.02.2022 05:20 -1,2 C 92 % 1.033,5 hpa N
27.02.2022 05:30 -1,3 C 92 % 1.033,6 hpa N
27.02.2022 05:40 -1,4 C 91 % 1.033,5 hpa N
27.02.2022 05:50 -1,4 C 91 % 1.033,6 hpa N
27.02.2022 06:00 -1,6 C 91 % 1.033,5 hpa N
27.02.2022 06:10 -1,7 C 92 % 1.033,5 hpa N
27.02.2022 06:20 -1,7 C 91 % 1.033,5 hpa N
27.02.2022 06:30 -1,8 C 91 % 1.033,5 hpa N
27.02.2022 06:40 -1,8 C 91 % 1.033,7 hpa N
27.02.2022 06:50 -1,9 C 92 % 1.033,9 hpa N
27.02.2022 07:00 -1,9 C 92 % 1.034,0 hpa N
27.02.2022 07:10 -1,9 C 92 % 1.034,0 hpa N
27.02.2022 07:20 -1,8 C 92 % 1.034,0 hpa N
27.02.2022 07:30 -1,7 C 92 % 1.034,0 hpa 5 W/m N
27.02.2022 07:40 -1,7 C 92 % 1.034,1 hpa 10 W/m N
27.02.2022 07:50 -1,5 C 92 % 1.034,1 hpa 13 W/m N
27.02.2022 08:00 -1,3 C 92 % 1.034,2 hpa 17 W/m N
27.02.2022 08:10 -1,2 C 92 % 1.034,4 hpa 19 W/m N
27.02.2022 08:20 -0,8 C 93 % 1.034,4 hpa 52 W/m N
27.02.2022 08:30 -0,5 C 93 % 1.034,5 hpa 119 W/m 3,2 km/h N
27.02.2022 08:40 -0,1 C 93 % 1.034,5 hpa 166 W/m 10 min 1,6 km/h 6,4 km/h S/SO
27.02.2022 08:50 0,4 C 93 % 1.034,6 hpa 188 W/m 10 min 1,6 km/h 6,4 km/h S/SO
27.02.2022 09:00 1,0 C 93 % 1.034,6 hpa 204 W/m 10 min 1,6 km/h 8,0 km/h S/SO
27.02.2022 09:10 1,6 C 92 % 1.034,6 hpa 225 W/m 10 min 1,6 km/h 6,4 km/h S/SO
27.02.2022 09:20 2,2 C 90 % 1.034,6 hpa 246 W/m 10 min 1,6 km/h 6,4 km/h O
27.02.2022 09:30 2,6 C 88 % 1.034,6 hpa 268 W/m 10 min 1,6 km/h 6,4 km/h O
27.02.2022 09:40 3,1 C 85 % 1.034,7 hpa 289 W/m 10 min 1,6 km/h 6,4 km/h O
27.02.2022 09:50 3,5 C 83 % 1.034,6 hpa 311 W/m 10 min 1,6 km/h 8,0 km/h O
27.02.2022 10:00 3,9 C 81 % 1.034,6 hpa 333 W/m 10 min 3,2 km/h N
27.02.2022 10:10 4,3 C 79 % 1.034,5 hpa 353 W/m 10 min 3,2 km/h N
27.02.2022 10:20 4,7 C 75 % 1.034,5 hpa 370 W/m 10 min 3,2 km/h 17,7 km/h S/SO
27.02.2022 10:30 5,2 C 73 % 1.034,5 hpa 386 W/m 10 min 3,2 km/h 14,5 km/h S/SO
27.02.2022 10:40 5,4 C 71 % 1.034,5 hpa 405 W/m 10 min 3,2 km/h 16,1 km/h S/SO
27.02.2022 10:50 5,8 C 70 % 1.034,4 hpa 424 W/m 10 min 3,2 km/h 19,3 km/h S/SO
27.02.2022 11:00 6,1 C 69 % 1.034,5 hpa 440 W/m 10 min 3,2 km/h 12,9 km/h S/SO
27.02.2022 11:10 6,3 C 69 % 1.034,5 hpa 456 W/m 10 min 3,2 km/h 11,3 km/h S/SO
27.02.2022 11:20 6,4 C 68 % 1.034,6 hpa 470 W/m 10 min 6,4 km/h 19,3 km/h S/SO
27.02.2022 11:30 6,6 C 68 % 1.034,5 hpa 483 W/m 10 min 6,4 km/h 20,9 km/h S/SO
27.02.2022 11:40 6,7 C 67 % 1.034,4 hpa 494 W/m 10 min 3,2 km/h 16,1 km/h S/SO
27.02.2022 11:50 7,0 C 66 % 1.034,3 hpa 506 W/m 10 min 4,8 km/h 14,5 km/h O
27.02.2022 12:00 7,3 C 67 % 1.034,2 hpa 516 W/m 10 min 3,2 km/h 11,3 km/h S/SO
27.02.2022 12:10 7,6 C 65 % 1.034,2 hpa 521 W/m 10 min 4,8 km/h 17,7 km/h O
27.02.2022 12:20 7,7 C 63 % 1.034,1 hpa 526 W/m 10 min 3,2 km/h 14,5 km/h S/SO
27.02.2022 12:30 7,8 C 63 % 1.034,0 hpa 531 W/m 10 min 4,8 km/h 17,7 km/h S/SO
27.02.2022 12:40 8,0 C 59 % 1.034,0 hpa 534 W/m 10 min 4,8 km/h 16,1 km/h S/SO
27.02.2022 12:50 8,1 C 61 % 1.033,8 hpa 534 W/m 10 min 3,2 km/h 16,1 km/h S/SO
27.02.2022 13:00 8,5 C 61 % 1.033,7 hpa 533 W/m 10 min 3,2 km/h 11,3 km/h O
27.02.2022 13:10 8,6 C 60 % 1.033,6 hpa 531 W/m 10 min 1,6 km/h 11,3 km/h O
27.02.2022 13:20 8,8 C 59 % 1.033,4 hpa 528 W/m 10 min 4,8 km/h 17,7 km/h O
27.02.2022 13:30 8,6 C 55 % 1.033,4 hpa 526 W/m 10 min 4,8 km/h 20,9 km/h O
27.02.2022 13:40 8,8 C 55 % 1.033,4 hpa 522 W/m 10 min 3,2 km/h 27,4 km/h S/SO
27.02.2022 13:50 8,9 C 57 % 1.033,4 hpa 514 W/m 10 min 4,8 km/h 16,1 km/h O
27.02.2022 14:00 9,0 C 57 % 1.033,3 hpa 505 W/m 10 min 1,6 km/h 12,9 km/h O
27.02.2022 14:10 9,3 C 56 % 1.033,2 hpa 493 W/m 10 min 3,2 km/h 22,5 km/h O
27.02.2022 14:20 9,2 C 57 % 1.033,2 hpa 481 W/m 10 min 3,2 km/h 8,0 km/h O
27.02.2022 14:30 9,2 C 56 % 1.033,2 hpa 468 W/m 10 min 3,2 km/h 17,7 km/h O
27.02.2022 14:40 9,3 C 55 % 1.033,1 hpa 453 W/m 10 min 3,2 km/h 14,5 km/h S/SO
27.02.2022 14:50 9,4 C 54 % 1.033,1 hpa 438 W/m 10 min 1,6 km/h 9,7 km/h S/SO
27.02.2022 15:00 9,4 C 53 % 1.033,0 hpa 421 W/m 10 min 4,8 km/h 19,3 km/h O
27.02.2022 15:10 9,4 C 55 % 1.032,9 hpa 402 W/m 10 min 3,2 km/h 20,9 km/h O
27.02.2022 15:20 9,5 C 54 % 1.032,9 hpa 381 W/m 10 min 3,2 km/h 17,7 km/h O
27.02.2022 15:30 9,4 C 54 % 1.032,7 hpa 361 W/m 10 min 4,8 km/h 19,3 km/h O
27.02.2022 15:40 9,3 C 55 % 1.032,6 hpa 342 W/m 10 min 4,8 km/h 17,7 km/h O
27.02.2022 15:50 9,4 C 55 % 1.032,5 hpa 317 W/m 10 min 3,2 km/h 17,7 km/h O
27.02.2022 16:00 9,3 C 55 % 1.032,6 hpa 295 W/m 10 min 4,8 km/h 17,7 km/h O
27.02.2022 16:10 9,2 C 55 % 1.032,7 hpa 269 W/m 10 min 3,2 km/h 11,3 km/h O
27.02.2022 16:20 9,1 C 55 % 1.032,6 hpa 245 W/m 10 min 4,8 km/h 19,3 km/h O
27.02.2022 16:30 8,9 C 55 % 1.032,5 hpa 220 W/m 10 min 6,4 km/h 17,7 km/h O
27.02.2022 16:40 8,7 C 56 % 1.032,4 hpa 195 W/m 10 min 6,4 km/h 17,7 km/h O
27.02.2022 16:50 8,6 C 56 % 1.032,5 hpa 129 W/m 10 min 6,4 km/h 19,3 km/h S/SO
27.02.2022 17:00 8,4 C 56 % 1.032,5 hpa 82 W/m 4,8 km/h 16,1 km/h O
27.02.2022 17:10 8,3 C 56 % 1.032,3 hpa 115 W/m 6,4 km/h 20,9 km/h O
Minimum: -1,9 C
07:10
53 %
15:00
1.032,3 hpa
17:10

17:10

07:20

10:10

23:10
S/SO
15,3%
Maximum: 9,5 C
15:20
93 %
09:00
1.034,7 hpa
09:40

17:10
534 W/m
12:50
6,4 km/h
17:10
27,4 km/h
13:40
N
65,3%
Durchschnitt/
Summe:
2,8 C 79 % 1.033,9 hpa # 141 W/m 1,3 km/h 5,3 km/h N/NO
35,1